When you browse on this site, cookies collect data to enhance your experience and personalize the content and advertising you see.
Visit our Privacy Policy to learn more. By continuing to use the site, you agree to this use of cookies and data.
  • In United Kingdom
  • List of Countries
  • For 7 days
  • Water Temperature
  • Weather Map
  • Weather Widgets
  • user-avatar
    Login

    Hourly Weather Khomas

    Today, 23 September, Monday

    Time Temperature Precipitation Wind Pressure Humidity
    00:00 +9°C° 0 mm 7 mps 610 mmHg 19%
    01:00 +9°C° 0 mm 6 mps 609 mmHg 18%
    02:00 +8°C° 0 mm 6 mps 609 mmHg 19%
    03:00 +7°C° 0 mm 6 mps 609 mmHg 19%
    04:00 +7°C° 0 mm 6 mps 609 mmHg 19%
    05:00 +8°C° 0 mm 6 mps 609 mmHg 18%
    06:00 +8°C° 0 mm 6 mps 610 mmHg 16%
    07:00 +9°C° 0 mm 7 mps 611 mmHg 14%
    08:00 +12°C° 0 mm 7 mps 612 mmHg 12%
    09:00 +16°C° 0 mm 7 mps 613 mmHg 10%
    10:00 +20°C° 0 mm 8 mps 613 mmHg 8%
    11:00 +21°C° 0 mm 7 mps 613 mmHg 8%
    12:00 +23°C° 0 mm 6 mps 613 mmHg 8%
    13:00 +26°C° 0 mm 5 mps 613 mmHg 8%
    14:00 +26°C° 0 mm 5 mps 613 mmHg 8%
    15:00 +26°C° 0 mm 5 mps 613 mmHg 8%
    16:00 +27°C° 0 mm 4 mps 612 mmHg 8%
    17:00 +23°C° 0 mm 5 mps 612 mmHg 10%
    18:00 +20°C° 0 mm 5 mps 611 mmHg 12%
    19:00 +16°C° 0 mm 6 mps 611 mmHg 14%
    20:00 +15°C° 0 mm 6 mps 611 mmHg 14%
    21:00 +14°C° 0 mm 6 mps 611 mmHg 14%
    22:00 +13°C° 0 mm 6 mps 611 mmHg 14%
    23:00 +12°C° 0 mm 5 mps 611 mmHg 15%

    Tomorrow, 24 September, Tuesday

    Time Temperature Precipitation Wind Pressure Humidity
    00:00 +10°C° 0 mm 5 mps 610 mmHg 16%
    01:00 +9°C° 0 mm 5 mps 610 mmHg 18%
    02:00 +8°C° 0 mm 4 mps 610 mmHg 18%
    03:00 +8°C° 0 mm 4 mps 610 mmHg 19%
    04:00 +7°C° 0 mm 4 mps 609 mmHg 19%
    05:00 +10°C° 0 mm 4 mps 610 mmHg 17%
    06:00 +11°C° 0 mm 4 mps 611 mmHg 15%
    07:00 +13°C° 0 mm 4 mps 612 mmHg 13%
    08:00 +17°C° 0 mm 3 mps 613 mmHg 12%
    09:00 +20°C° 0 mm 3 mps 614 mmHg 10%
    10:00 +25°C° 0 mm 3 mps 615 mmHg 9%
    11:00 +26°C° 0 mm 3 mps 614 mmHg 8%
    12:00 +28°C° 0 mm 4 mps 614 mmHg 8%
    13:00 +30°C° 0 mm 5 mps 614 mmHg 7%
    14:00 +29°C° 0 mm 5 mps 614 mmHg 7%
    15:00 +29°C° 0 mm 5 mps 613 mmHg 7%
    16:00 +29°C° 0 mm 5 mps 613 mmHg 7%
    17:00 +26°C° 0 mm 5 mps 612 mmHg 7%
    18:00 +21°C° 0 mm 5 mps 611 mmHg 8%
    19:00 +18°C° 0 mm 4 mps 610 mmHg 9%
    20:00 +17°C° 0 mm 4 mps 611 mmHg 9%
    21:00 +15°C° 0 mm 4 mps 611 mmHg 10%
    22:00 +14°C° 0 mm 4 mps 611 mmHg 10%
    23:00 +13°C° 0 mm 4 mps 611 mmHg 11%

    Day after tomorrow, 25 September, Wednesday

    Time Temperature Precipitation Wind Pressure Humidity
    00:00 +13°C° 0 mm 4 mps 610 mmHg 11%
    01:00 +12°C° 0 mm 4 mps 610 mmHg 12%
    02:00 +12°C° 0 mm 4 mps 610 mmHg 14%
    03:00 +11°C° 0 mm 3 mps 610 mmHg 16%
    04:00 +10°C° 0 mm 3 mps 609 mmHg 18%
    05:00 +12°C° 0 mm 3 mps 610 mmHg 15%
    06:00 +14°C° 0 mm 3 mps 611 mmHg 12%
    07:00 +17°C° 0 mm 3 mps 612 mmHg 9%
    08:00 +20°C° 0 mm 4 mps 613 mmHg 8%
    09:00 +23°C° 0 mm 4 mps 614 mmHg 7%
    10:00 +27°C° 0 mm 5 mps 615 mmHg 5%
    11:00 +28°C° 0 mm 4 mps 615 mmHg 5%
    12:00 +29°C° 0 mm 3 mps 615 mmHg 5%
    13:00 +30°C° 0 mm 2 mps 614 mmHg 4%
    14:00 +30°C° 0 mm 2 mps 614 mmHg 4%
    15:00 +30°C° 0 mm 2 mps 614 mmHg 4%
    16:00 +30°C° 0 mm 3 mps 613 mmHg 4%
    17:00 +26°C° 0 mm 3 mps 612 mmHg 6%
    18:00 +21°C° 0 mm 2 mps 611 mmHg 7%
    19:00 +17°C° 0 mm 2 mps 610 mmHg 8%
    20:00 +17°C° 0 mm 2 mps 610 mmHg 12%
    21:00 +16°C° 0 mm 2 mps 610 mmHg 15%
    22:00 +16°C° 0 mm 2 mps 610 mmHg 18%
    23:00 +15°C° 0 mm 4 mps 611 mmHg 26%

    26 September, Thursday

    Time Temperature Precipitation Wind Pressure Humidity
    00:00 +15°C° 0 mm 5 mps 611 mmHg 33%
    01:00 +15°C° 0 mm 6 mps 611 mmHg 41%
    02:00 +15°C° 0 mm 6 mps 611 mmHg 45%
    03:00 +14°C° 0 mm 7 mps 611 mmHg 48%
    04:00 +12°C° 0 mm 7 mps 611 mmHg 52%
    05:00 +14°C° 0 mm 7 mps 611 mmHg 51%
    06:00 +13°C° 0 mm 8 mps 612 mmHg 51%
    07:00 +13°C° 0 mm 8 mps 612 mmHg 50%
    08:00 +17°C° 0 mm 8 mps 613 mmHg 43%
    09:00 +21°C° 0 mm 9 mps 614 mmHg 36%
    10:00 +24°C° 0 mm 9 mps 615 mmHg 28%
    11:00 +26°C° 0 mm 8 mps 615 mmHg 25%
    12:00 +27°C° 0 mm 7 mps 615 mmHg 21%
    13:00 +28°C° 0 mm 6 mps 614 mmHg 17%
    14:00 +28°C° 0 mm 6 mps 614 mmHg 16%
    15:00 +28°C° 0 mm 5 mps 614 mmHg 16%
    16:00 +28°C° 0 mm 5 mps 613 mmHg 15%
    17:00 +25°C° 0 mm 5 mps 613 mmHg 17%
    18:00 +22°C° 0 mm 5 mps 612 mmHg 19%
    19:00 +20°C° 0 mm 5 mps 612 mmHg 20%
    20:00 +19°C° 0 mm 5 mps 612 mmHg 20%
    21:00 +17°C° 0 mm 5 mps 612 mmHg 20%
    22:00 +16°C° 0 mm 5 mps 612 mmHg 20%
    23:00 +15°C° 0 mm 5 mps 612 mmHg 20%

    27 September, Friday

    Time Temperature Precipitation Wind Pressure Humidity
    00:00 +14°C° 0 mm 5 mps 611 mmHg 20%
    01:00 +13°C° 0 mm 5 mps 611 mmHg 20%
    02:00 +12°C° 0 mm 4 mps 611 mmHg 20%
    03:00 +11°C° 0 mm 4 mps 610 mmHg 20%
    04:00 +10°C° 0 mm 3 mps 610 mmHg 19%
    05:00 +12°C° 0 mm 4 mps 611 mmHg 17%
    06:00 +13°C° 0 mm 4 mps 612 mmHg 14%
    07:00 +15°C° 0 mm 4 mps 612 mmHg 12%
    08:00 +19°C° 0 mm 4 mps 613 mmHg 11%
    09:00 +22°C° 0 mm 4 mps 614 mmHg 11%
    10:00 +26°C° 0 mm 4 mps 615 mmHg 10%
    11:00 +27°C° 0 mm 5 mps 615 mmHg 10%
    12:00 +28°C° 0 mm 5 mps 614 mmHg 10%
    13:00 +29°C° 0 mm 5 mps 614 mmHg 10%
    14:00 +29°C° 0 mm 5 mps 613 mmHg 10%
    15:00 +29°C° 0 mm 5 mps 613 mmHg 10%
    16:00 +29°C° 0 mm 5 mps 612 mmHg 10%
    17:00 +26°C° 0 mm 5 mps 612 mmHg 12%
    18:00 +22°C° 0 mm 4 mps 611 mmHg 14%
    19:00 +19°C° 0 mm 4 mps 610 mmHg 16%
    20:00 +18°C° 0 mm 3 mps 610 mmHg 19%
    21:00 +16°C° 0 mm 2 mps 609 mmHg 23%
    22:00 +14°C° 0 mm 2 mps 609 mmHg 27%
    23:00 +13°C° 0 mm 1 mps 608 mmHg 28%

    28 September, Saturday

    Time Temperature Precipitation Wind Pressure Humidity
    00:00 +12°C° 0 mm 1 mps 608 mmHg 29%
    01:00 +12°C° 0 mm 1 mps 607 mmHg 30%
    02:00 +11°C° 0 mm 1 mps 607 mmHg 30%
    03:00 +11°C° 0 mm 1 mps 607 mmHg 30%
    04:00 +10°C° 0 mm 1 mps 606 mmHg 30%
    05:00 +13°C° 0 mm 2 mps 608 mmHg 23%
    06:00 +16°C° 0 mm 2 mps 609 mmHg 16%
    07:00 +19°C° 0 mm 3 mps 611 mmHg 9%
    08:00 +21°C° 0 mm 4 mps 611 mmHg 9%
    09:00 +25°C° 0 mm 4 mps 612 mmHg 8%
    10:00 +27°C° 0 mm 5 mps 613 mmHg 8%
    11:00 +28°C° 0 mm 5 mps 612 mmHg 8%
    12:00 +29°C° 0 mm 5 mps 612 mmHg 8%
    13:00 +30°C° 0 mm 5 mps 611 mmHg 8%
    14:00 +29°C° 0 mm 6 mps 611 mmHg 8%
    15:00 +29°C° 0 mm 7 mps 610 mmHg 8%
    16:00 +29°C° 0 mm 8 mps 610 mmHg 8%
    17:00 +26°C° 0 mm 7 mps 609 mmHg 18%
    18:00 +21°C° 0 mm 7 mps 608 mmHg 28%
    19:00 +17°C° 0 mm 6 mps 607 mmHg 38%
    20:00 +16°C° 0 mm 6 mps 607 mmHg 42%
    21:00 +14°C° 0 mm 5 mps 607 mmHg 46%
    22:00 +13°C° 0 mm 4 mps 607 mmHg 49%
    23:00 +12°C° 0 mm 4 mps 607 mmHg 51%
    Show more